This is the latest recevied weather packets stored in our database for station/object SP5EB-3. If no packets are shown the sender has not sent any weather packets the latest 10 day(s).
| Time | Temp. | Humidity | Pressure | Rain* | Wind** | Luminosity | Snow |
|---|---|---|---|---|---|---|---|
| 1777394621 | 15° C | 99% | 1021 hPa | - | - | - | - |
| 1777394314 | 15° C | 99% | 1021.1 hPa | - | - | - | - |
| 1777394006 | 15° C | 99% | 1021.1 hPa | - | - | - | - |
| 1777393390 | 13.89° C | 99% | 1021.1 hPa | - | - | - | - |
| 1777393083 | 13.33° C | 99% | 1021.1 hPa | - | - | - | - |
| 1777392776 | 13.33° C | 99% | 1021.2 hPa | - | - | - | - |
| 1777392468 | 13.33° C | 99% | 1021.1 hPa | - | - | - | - |
| 1777391853 | 13.33° C | 99% | 1021.2 hPa | - | - | - | - |
| 1777391545 | 12.78° C | 99% | 1021.1 hPa | - | - | - | - |
| 1777391238 | 13.33° C | 99% | 1021.2 hPa | - | - | - | - |
| 1777390931 | 13.89° C | 99% | 1021.2 hPa | - | - | - | - |
| 1777390623 | 14.44° C | 99% | 1021.3 hPa | - | - | - | - |
| 1777390316 | 14.44° C | 99% | 1021.3 hPa | - | - | - | - |
| 1777390007 | 14.44° C | 99% | 1021.4 hPa | - | - | - | - |
| 1777389700 | 13.89° C | 99% | 1021.2 hPa | - | - | - | - |
| 1777389393 | 12.78° C | 99% | 1021.2 hPa | - | - | - | - |
| 1777389085 | 12.78° C | 99% | 1021.3 hPa | - | - | - | - |
| 1777388778 | 12.78° C | 99% | 1021.4 hPa | - | - | - | - |
| 1777388471 | 13.33° C | 99% | 1021.5 hPa | - | - | - | - |
| 1777388162 | 13.89° C | 99% | 1021.6 hPa | - | - | - | - |
| 1777387855 | 14.44° C | 99% | 1021.5 hPa | - | - | - | - |
| 1777387547 | 15° C | 99% | 1021.5 hPa | - | - | - | - |
| 1777387240 | 15.56° C | 99% | 1021.5 hPa | - | - | - | - |
| 1777386932 | 16.11° C | 99% | 1021.7 hPa | - | - | - | - |
| 1777386624 | 16.11° C | 99% | 1021.6 hPa | - | - | - | - |
* Rain since midnight (hover to see other rain measurements)
** Current wind speed in m/s (hover to see current wind gust speed)